Flag for Congo Weather past 2 weeks in Pointe-Noire, Congo

Now
75 °F

Broken clouds.


Feels Like: 77 °F
Forecast: 69 / 77 °F
Wind: 12 mph from South

Location: Pointe Airport-Noire

Current Time: Jul 28, 2014 at 1:51:36 PM

Latest Report: Jul 28, 2014 at 1:00 PM


Visibility: 5 mi

Pressure: 29.95 "Hg

Humidity: 65%

Dew point: 63 °F

Location of Pointe-NoireLocation

Historic Weather in Pointe-Noire — Graph

°F

Pointe-Noire temperature yesterday

Maximum temperature yesterday: 75 °F (at 11:00 AM)
Minimum temperature yesterday: 70 °F (at 12:00 AM)
Average temperature yesterday: 71 °F

Past Weeks' High & Low Weather Summary

 TemperatureHumidityPressure
High79 °F (Jul 26, 1:00 PM)100% (Jul 21, 1:00 AM)30.09 "Hg (Jul 21, 1:00 AM)
Low64 °F (Jul 23, 6:00 AM)57% (Jul 17, 3:00 PM)29.89 "Hg (Jul 14, 4:00 PM)
Average71 °F84%30.00 "Hg
* Reported Jul 13 12:00 Noon — Jul 28 12:00 Noon, Pointe-Noire, Weather by CustomWeather, © 2014

Note: Actual official high and low records may vary slightly from our data, if they occured in-between our weather recording intervals... More about our weather records

Advertising

Pointe-Noire weather history for previous 24 hours

 ConditionsComfort  
Time TempWeatherWind HumidityBarometerVisibility
12:00 PM
Jul 28
77 °FBroken clouds.9 mph65%29.98 "Hg5 mi
11:00 AM75 °FBroken clouds.5 mph74%30.01 "Hg5 mi
10:00 AM73 °FMore clouds than sun.7 mph78%30.01 "HgN/A
9:00 AM70 °FMore clouds than sun.7 mph83%30.01 "Hg5 mi
8:00 AM70 °FOvercast.7 mph88%30.01 "Hg4 mi
7:00 AM68 °FLow clouds.5 mph94%29.98 "Hg4 mi
6:00 AM68 °FLow clouds.5 mph94%29.98 "Hg4 mi
5:00 AM68 °FLow clouds.5 mph94%29.98 "Hg4 mi
4:00 AM70 °FOvercast.7 mph88%29.95 "Hg4 mi
3:00 AM70 °FOvercast.12 mph88%29.95 "Hg4 mi
2:00 AM70 °FPassing clouds.12 mph88%29.98 "Hg4 mi
1:00 AM68 °FPartly cloudy.N/A94%29.98 "Hg4 mi
12:00 AM68 °FClear.5 mph94%30.01 "Hg4 mi
11:00 PM
Jul 27
70 °FClear.5 mph88%29.98 "Hg4 mi
10:00 PM70 °FPassing clouds.5 mph88%29.98 "Hg4 mi
9:00 PM70 °FPassing clouds.5 mph88%29.98 "Hg4 mi
8:00 PM70 °FClear.5 mph88%29.95 "Hg4 mi
7:00 PM70 °FPassing clouds.7 mph88%29.92 "Hg4 mi
6:00 PM72 °FPassing clouds.7 mph83%29.92 "Hg5 mi
5:00 PM73 °FPassing clouds.7 mph74%29.92 "HgN/A
4:00 PM73 °FPassing clouds.9 mph74%29.92 "HgN/A
3:00 PM75 °FPassing clouds.14 mph69%29.92 "HgN/A
2:00 PM73 °FPassing clouds.14 mph74%29.95 "HgN/A
1:00 PM75 °FPassing clouds.14 mph69%29.98 "HgN/A
Weather by CustomWeather, © 2014

See weather overviewHow to use our weather pages